Back to catalog

STARLINK-35907

AliveCommunicationsVLEO
NORAD 66498·PAYLOAD·🇺🇸 United States

Launched Nov 15, 2025 from Cape Canaveral Space Force Station

Loading…

Next Passes (next 24 hours)

TLE

FreshSource: CelesTrak SupGP

Epoch: Sep 14, 2026, 15:06 UTC

1 66498C 25263P   26257.62965278 -.00032211  00000+0 -11671-2 0  2573
2 66498  43.0029   3.8614 0001439 273.5853  48.4182 15.27582516    15

Track STARLINK-35907 in real time with AllMySat

Download on the App Store